Dewpoint
60 60 61 61 61 61 61 61 61 60 60 60 60 60 61 61 61 61 61 61 61 62 62 61 61 62 61 62 63 61 54 40 37 34 31 33 46 61 60 62 63 63 64 39 38 31 31 29 30 31 36 35 34 34 38 40 38 35 28 27 20 23 19 22 20 21 24 20 19 19 19 19 19 20 17 18 16 16 16 16 17 18 19 22 24 27 27 27
59 60 60 61 61 61 61 61 61 60 61 60 60 60 60 60 60 60 61 61 61 62 62 63 61 60 61 60 60 60 46 40 33 33 32 43 55 60 62 64 64 64 55 38 37 34 29 25 32 30 32 29 35 32 35 33 35 30 27 23 15 24 20 23 21 23 18 18 19 19 20 19 18 18 17 17 15 15 17 16 17 16 17 19 20 23 23 23
59 59 60 60 61 61 61 61 61 60 60 60 60 60 60 59 60 60 61 61 61 61 62 62 63 61 60 61 59 59 43 38 27 27 32 56 60 63 62 62 63 61 42 38 41 36 30 31 33 28 32 23 30 29 33 30 34 32 23 16 21 26 23 22 20 21 19 19 18 18 20 19 19 18 20 18 15 16 17 17 15 15 15 17 19 20 19 21
59 59 60 60 60 61 61 61 62 61 61 61 60 59 59 59 60 61 61 61 61 61 62 62 62 62 60 61 61 54 38 31 22 24 32 53 61 61 62 61 61 57 44 41 40 38 33 31 31 27 28 22 26 32 28 29 25 28 22 16 21 26 20 19 21 20 20 19 18 18 21 20 20 20 19 18 15 15 15 16 17 15 15 16 17 20 21 19
59 59 59 59 60 60 60 61 62 62 61 61 60 61 59 59 59 60 61 61 61 61 61 62 62 62 62 60 59 46 36 27 24 35 39 58 61 60 59 59 61 48 44 41 30 31 29 28 30 30 24 21 27 28 25 27 28 26 20 20 23 26 19 20 21 22 21 21 19 20 17 18 20 20 19 16 17 17 17 17 16 16 14 15 16 18 19 15
59 59 59 59 60 60 60 60 61 61 62 61 61 61 60 59 59 59 60 60 61 61 61 61 61 61 61 60 43 40 32 20 30 36 57 58 60 58 57 57 58 37 32 29 30 31 25 25 26 27 24 23 23 22 22 26 28 20 21 21 24 23 19 20 22 22 20 19 18 18 19 20 19 19 19 17 18 18 20 18 17 15 14 14 15 17 16 15
58 58 59 59 59 59 60 60 61 61 61 62 61 61 61 60 60 59 59 59 60 61 61 62 61 59 60 59 43 37 33 34 35 38 54 60 57 57 54 52 51 37 28 25 25 27 31 26 25 27 25 25 25 23 24 25 23 20 16 21 22 25 19 21 22 25 20 19 18 19 22 19 19 18 19 17 18 17 14 15 16 15 15 15 14 15 13 14
58 58 58 58 59 59 60 60 60 61 61 61 62 60 60 61 59 59 59 59 60 61 61 61 61 60 58 42 34 36 36 31 33 41 52 56 44 44 52 40 40 39 34 29 27 24 28 27 24 29 23 18 22 23 25 19 19 20 18 23 24 22 20 23 22 22 21 19 20 21 20 19 19 19 17 17 19 16 15 15 15 15 15 15 13 13 15 15
58 58 58 58 58 59 59 59 60 60 61 61 61 60 61 60 59 59 59 59 60 61 61 60 60 59 55 43 37 31 30 38 38 41 45 41 40 41 41 36 40 35 37 36 31 26 23 23 27 25 16 22 26 21 23 16 14 24 20 24 24 21 21 21 20 21 21 20 20 19 19 19 20 22 16 17 17 15 16 14 15 15 15 13 12 11 13 13
58 58 57 58 58 58 59 59 59 60 60 61 60 60 60 60 60 59 59 59 60 61 61 60 60 59 43 38 32 23 32 40 43 43 42 40 39 38 41 42 40 32 29 33 29 24 23 24 26 30 28 27 27 22 25 19 16 23 24 25 21 19 19 20 20 20 21 18 18 15 16 18 18 18 13 13 14 17 14 14 14 13 13 11 10 12 13 13
58 58 57 58 58 58 58 59 59 59 60 60 60 60 60 60 60 58 59 59 61 61 61 61 58 53 39 36 28 23 38 40 43 43 40 41 39 38 40 42 39 35 34 35 33 35 29 29 37 36 28 23 21 21 19 18 22 23 22 19 17 18 19 19 19 19 19 18 17 16 16 20 18 20 14 13 13 14 13 13 12 12 11 10 10 12 17 14
57 57 58 57 57 58 58 59 59 59 59 60 60 59 60 60 59 58 58 59 61 60 59 60 55 41 36 32 29 28 41 40 43 42 42 42 40 40 40 42 36 37 30 32 35 38 38 36 31 18 16 25 18 19 21 20 20 19 17 14 15 20 18 18 18 19 19 17 18 19 17 16 18 16 18 14 13 14 12 12 11 10 9 11 11 12 14 13
57 57 57 57 58 58 58 58 59 59 59 60 60 60 60 59 59 58 57 59 61 60 60 57 53 44 37 30 32 39 43 40 40 40 40 44 43 44 44 43 41 39 35 34 35 39 39 36 29 22 27 21 20 14 20 20 19 19 16 16 16 20 19 18 20 19 18 18 19 18 16 17 16 17 14 13 13 12 11 11 10 10 9 9 10 10 12 12
57 57 57 57 57 57 58 58 58 59 59 59 59 59 58 59 59 57 58 60 61 60 61 56 45 39 34 31 35 39 42 41 40 39 41 40 40 42 38 41 41 40 42 40 41 41 40 36 31 26 31 17 16 24 18 18 20 13 14 22 19 18 19 19 19 18 17 21 19 16 16 15 16 16 18 13 12 11 11 10 9 10 10 9 11 10 10 10
57 57 57 57 57 57 57 57 58 58 59 59 59 58 58 59 57 57 60 60 61 61 60 55 43 35 30 29 37 38 53 43 34 38 41 31 33 36 30 39 39 39 38 39 40 42 37 35 29 26 24 25 21 14 13 20 19 20 15 18 22 17 20 21 19 19 16 17 19 16 17 14 15 15 17 13 12 11 11 10 9 9 9 9 9 9 9 9
57 57 57 57 57 57 57 57 57 58 59 59 58 58 57 56 56 59 61 59 60 59 55 45 43 33 27 25 33 46 38 34 35 42 42 37 32 28 35 39 39 37 35 35 40 39 35 34 28 27 25 18 18 18 20 22 22 19 16 20 18 19 21 12 15 19 19 18 19 15 15 15 15 15 16 13 12 11 11 10 9 8 8 9 9 9 9 9
57 57 57 57 57 57 56 56 57 58 58 58 58 57 56 55 57 59 59 59 55 53 45 41 41 35 23 31 35 33 33 36 42 40 40 42 34 33 34 34 32 34 34 34 36 34 32 26 29 24 27 18 20 23 21 22 20 19 18 14 22 14 13 11 14 14 20 18 16 17 15 14 15 16 16 13 11 11 10 11 10 8 8 8 10 10 10 8
57 57 57 57 57 56 56 56 57 58 58 58 57 56 53 57 56 56 49 48 48 48 45 42 38 28 22 33 28 30 39 39 41 40 40 40 35 31 29 27 31 29 32 30 32 27 30 26 27 22 27 24 14 23 19 16 19 20 19 15 13 12 14 11 11 11 11 16 15 16 16 15 15 15 15 13 11 10 10 11 10 9 8 9 10 10 10 9
57 57 57 57 57 56 56 57 58 58 58 58 57 55 55 53 42 36 33 34 22 23 19 31 28 20 19 19 32 37 39 40 41 37 33 33 38 37 36 34 32 25 27 30 27 28 31 28 29 23 17 21 17 18 21 24 21 16 15 12 14 9 9 10 11 11 11 8 8 12 12 11 12 12 13 14 12 10 10 11 11 10 9 9 10 11 11 11
57 57 57 57 56 56 57 57 58 58 58 54 47 40 37 31 30 24 29 29 20 17 18 15 24 27 31 29 34 38 40 37 32 33 36 36 30 29 25 31 32 33 28 27 32 29 28 22 21 20 20 18 18 16 18 21 14 9 14 12 6 9 9 10 10 9 14 9 9 8 9 10 11 11 13 13 14 12 11 10 10 11 10 10 10 11 11 11
57 57 57 56 56 57 57 57 58 58 58 47 41 32 23 25 20 19 25 28 28 31 27 26 29 24 22 36 38 34 32 32 32 32 35 39 30 25 23 23 27 24 28 30 28 29 26 21 22 23 21 18 18 16 9 9 5 4 9 10 8 14 9 12 11 13 16 14 15 15 14 13 11 13 14 15 14 13 12 11 11 10 10 11 10 11 11 11
57 57 57 56 57 57 57 57 57 57 54 43 36 26 28 25 29 28 27 22 31 34 33 32 36 31 37 37 39 33 32 29 30 33 37 33 29 24 23 23 23 22 27 25 26 25 22 22 23 24 22 11 8 7 6 5 11 11 9 12 11 12 15 13 14 19 17 16 14 15 14 15 16 16 17 17 15 15 14 13 13 12 11 11 11 11 11 12
57 56 56 57 57 57 57 56 56 53 42 37 35 37 40 45 44 43 38 33 34 36 36 35 31 33 34 36 35 34 31 30 26 32 34 33 28 25 24 22 24 25 26 24 25 22 24 25 24 22 15 9 9 8 8 10 13 11 12 12 12 16 16 18 16 21 18 15 16 17 15 15 16 16 16 17 17 16 19 17 17 16 13 12 11 11 11 11
57 57 56 56 57 56 56 56 55 48 44 39 38 39 41 44 44 43 35 29 25 29 34 36 33 35 34 31 35 33 31 32 29 30 32 29 25 28 23 23 24 25 24 22 25 24 23 21 20 14 13 13 10 12 10 9 10 17 16 15 15 16 14 15 13 18 17 17 16 15 16 14 17 16 16 15 15 16 17 17 18 18 19 17 18 15 13 11
57 56 56 57 57 56 55 56 45 43 44 42 42 45 43 43 43 42 35 20 21 27 35 36 39 38 37 39 37 33 32 28 28 28 32 27 23 23 22 25 24 23 24 23 23 21 22 23 18 16 15 12 16 13 15 17 13 18 20 17 16 16 14 16 19 16 17 18 14 18 11 15 17 16 17 17 16 15 15 16 16 16 16 16 14 13 14 17
57 56 56 57 57 55 56 45 44 45 44 41 43 45 42 42 44 41 24 16 14 21 26 26 40 32 38 32 34 32 29 28 29 30 36 29 33 23 25 23 25 23 22 22 22 23 22 23 20 21 18 17 15 16 20 19 17 15 18 20 17 14 15 17 17 18 16 14 17 19 13 11 14 16 17 17 15 15 15 15 15 16 16 16 16 15 14 13
58 57 57 57 56 55 46 39 43 44 38 41 46 45 43 45 44 44 13 13 10 23 22 30 31 29 35 33 31 29 19 25 27 27 25 31 25 30 22 22 22 20 23 18 22 21 19 19 22 22 20 19 17 15 20 18 18 15 19 21 19 19 18 18 15 16 15 20 19 14 18 15 15 16 18 17 15 15 15 15 15 14 15 16 15 16 14 14
58 57 57 57 56 54 50 48 44 39 40 45 46 43 43 44 45 36 7 -0 1 26 28 30 32 35 36 35 31 22 23 26 23 23 26 29 28 26 25 24 24 22 15 23 21 25 18 19 20 21 20 19 19 20 22 21 19 18 22 20 17 14 16 18 14 13 14 13 17 13 15 12 13 13 13 13 14 14 14 14 14 15 14 15 15 16 15 14
57 57 57 56 56 54 48 46 43 40 46 48 45 44 44 44 34 19 14 -1 10 27 33 31 36 32 31 31 29 28 28 28 22 24 27 26 28 25 23 24 24 24 21 24 23 24 24 21 23 24 21 18 21 22 22 21 18 20 22 21 21 21 20 15 13 13 14 15 17 13 14 9 13 17 13 14 12 13 14 14 15 15 15 14 15 15 15 14
57 57 56 55 51 49 46 45 43 46 46 45 41 44 43 37 20 16 5 -0 19 20 26 29 28 27 30 27 28 28 26 27 23 21 22 23 24 26 22 26 20 19 21 24 22 25 25 29 28 20 21 21 23 24 24 21 20 21 21 19 20 20 16 15 14 15 12 11 17 17 13 14 13 16 14 14 16 14 14 14 14 15 16 15 15 15 16 15
57 57 56 55 51 49 43 40 41 46 45 44 45 45 36 29 23 14 3 12 10 23 25 28 25 31 28 27 26 26 27 27 24 21 20 22 21 22 21 22 26 24 22 22 23 24 23 22 22 23 26 24 24 22 23 23 22 21 17 16 21 22 16 10 6 12 8 12 14 15 13 15 13 13 16 15 16 14 15 16 17 17 17 16 15 15 15 14
57 57 56 53 50 50 49 43 46 48 46 45 39 34 26 20 21 9 9 18 7 20 22 24 27 28 27 28 26 26 27 25 24 20 19 20 20 21 21 21 22 17 20 20 22 21 21 24 24 22 31 23 22 21 20 24 22 20 18 19 14 14 12 13 3 3 7 11 15 10 13 13 13 13 15 16 16 15 14 16 18 18 18 17 15 15 16 14
57 56 55 52 51 50 48 47 48 47 47 45 35 26 23 20 7 17 12 14 5 21 19 27 25 27 27 27 27 27 28 25 24 20 23 23 21 23 24 23 25 20 15 20 20 18 21 22 23 22 22 26 24 19 17 18 19 18 18 16 14 10 8 7 7 2 8 11 14 10 12 13 13 14 16 15 16 16 16 16 17 17 17 16 16 15 15 14
57 55 53 51 51 51 49 48 48 47 45 42 31 27 23 14 10 27 16 17 15 27 28 27 27 27 27 25 27 27 25 27 23 22 23 22 21 21 22 23 25 23 21 19 17 16 10 16 18 22 18 25 23 21 20 19 18 18 20 19 19 14 7 3 4 1 6 10 10 9 7 13 7 12 17 16 16 17 15 9 10 14 17 17 15 14 13 11
56 55 53 51 51 50 49 48 48 48 42 35 28 23 18 13 16 17 18 16 17 25 27 28 26 25 25 26 27 28 26 22 25 24 22 23 21 21 22 21 25 25 24 19 23 17 17 19 20 24 22 23 22 24 24 22 18 19 21 22 17 19 17 9 11 8 9 13 14 5 13 13 12 15 17 13 8 9 11 9 16 13 17 16 13 13 11 10
54 52 53 51 51 51 50 50 49 47 43 33 26 22 14 12 13 20 16 20 21 20 27 26 26 22 24 23 25 26 27 22 23 23 23 24 24 22 25 24 23 24 23 21 21 19 16 14 23 22 23 22 20 22 21 23 15 18 19 16 21 23 19 14 16 10 8 5 14 6 11 15 18 17 14 10 8 6 6 6 10 12 14 13 13 12 10 8
52 51 48 51 50 51 51 49 49 46 40 32 25 21 21 17 20 22 29 16 21 26 24 12 18 20 21 21 23 25 26 24 24 23 22 25 22 25 24 26 27 25 24 22 21 25 19 18 24 23 21 21 15 20 19 19 22 18 15 18 19 23 24 20 14 9 4 6 12 8 11 10 14 11 12 10 10 11 10 6 5 8 11 10 13 11 9 7
51 50 49 48 49 51 51 49 49 46 39 32 25 29 23 20 21 14 24 23 23 24 22 13 13 22 20 20 21 24 26 22 23 23 22 22 18 27 25 25 27 25 24 25 22 25 21 15 19 23 22 20 22 18 19 21 22 19 20 23 16 11 10 12 10 8 6 6 10 13 14 15 13 12 14 14 10 11 12 8 5 6 8 10 11 11 8 7
51 50 45 48 50 50 50 49 49 46 37 29 25 26 28 22 20 18 26 22 25 24 16 19 8 18 21 22 20 23 24 19 22 22 18 21 19 25 24 26 26 27 25 24 22 22 21 17 12 24 17 20 18 21 19 17 16 15 16 14 16 16 16 11 16 12 12 9 5 11 12 10 19 18 18 17 12 13 12 6 5 6 8 9 9 10 8 6
49 46 43 48 50 50 49 49 47 44 38 32 27 25 27 23 19 21 26 22 21 20 19 18 19 6 22 21 23 19 24 22 22 23 20 21 21 25 23 25 27 27 25 25 25 26 22 14 14 17 23 21 18 18 20 17 17 12 12 11 9 12 17 17 12 12 12 7 8 8 11 13 19 22 21 21 15 13 11 11 12 9 8 8 9 9 8 6
50 46 44 49 50 49 48 47 42 39 37 37 35 29 27 23 24 19 22 23 21 21 18 22 22 14 16 21 20 22 23 23 23 21 22 22 19 14 23 24 28 26 27 26 24 25 20 15 17 15 16 15 18 20 21 20 18 16 15 15 13 15 10 10 13 12 10 10 11 9 12 18 21 22 22 22 19 15 14 18 18 12 8 7 8 8 8 7
47 40 42 49 49 48 46 40 40 41 40 38 35 34 32 37 27 27 24 23 25 19 23 22 25 21 20 19 20 22 23 24 24 22 22 20 23 18 20 25 26 26 25 24 23 26 24 18 17 15 14 14 19 20 17 19 18 19 18 18 17 15 16 13 12 15 7 14 14 14 12 16 20 19 22 22 21 17 16 16 16 13 9 7 7 7 7 7
45 43 46 48 49 46 43 38 40 40 39 40 40 39 38 35 30 29 26 25 23 21 21 21 17 22 23 20 21 21 22 20 25 23 23 23 23 22 24 26 28 28 27 25 27 22 30 18 16 17 17 18 17 18 17 17 15 17 19 19 17 15 16 15 16 16 15 11 12 10 13 18 18 16 20 17 18 16 14 14 15 13 9 7 7 7 7 6
46 44 43 48 48 46 40 34 34 36 39 41 40 39 37 36 33 30 28 27 24 23 19 18 18 16 17 23 19 18 21 16 22 23 21 24 24 25 24 27 25 25 24 22 22 27 18 23 18 15 12 13 14 15 16 16 14 14 17 18 18 19 18 17 16 16 12 17 14 15 13 15 19 16 8 9 8 11 9 9 12 12 9 7 6 6 6 6
46 45 44 45 48 47 38 33 30 33 37 37 38 37 37 35 35 35 31 29 28 25 23 21 18 21 19 22 22 20 22 17 13 23 21 21 23 22 23 27 24 23 23 28 31 27 24 20 19 15 12 9 7 6 13 15 15 13 11 13 16 18 16 16 15 14 15 16 15 16 16 16 17 14 10 7 9 8 9 9 8 8 9 6 5 6 6 6
43 36 42 41 44 43 43 43 39 31 32 35 35 35 36 34 33 34 35 33 30 28 26 26 26 21 21 21 20 19 19 23 18 18 21 21 20 23 22 25 25 25 29 30 31 25 20 19 18 16 16 11 10 10 14 19 15 14 15 15 14 17 18 18 17 15 15 16 18 18 18 17 19 19 17 18 16 10 14 14 7 7 6 6 5 5 6 6
45 39 38 33 41 40 39 41 40 38 31 34 32 33 32 34 32 29 35 31 33 31 29 28 26 23 22 21 19 18 21 20 23 21 19 18 23 23 21 22 23 26 33 31 31 22 19 17 17 19 18 15 14 14 19 18 14 15 17 16 15 16 18 19 18 16 18 17 16 18 19 20 20 20 20 20 21 21 21 21 17 9 7 6 5 6 14 7
40 42 43 40 37 33 35 36 40 38 37 32 30 33 30 30 32 30 31 33 30 33 30 28 28 27 24 23 23 21 21 21 21 20 23 22 20 21 24 23 22 28 28 26 28 23 17 19 19 17 17 19 19 18 19 16 15 15 16 17 16 15 18 17 18 18 17 18 16 17 19 20 19 19 20 20 21 21 21 21 20 17 11 7 6 6 8 7
46 42 44 44 38 38 38 36 38 38 37 34 30 30 28 28 27 31 30 30 31 29 31 27 26 27 27 26 24 21 22 16 20 23 22 23 24 24 24 24 25 24 27 23 23 23 20 21 20 20 19 19 19 19 20 16 14 13 15 16 17 16 15 17 17 18 18 19 18 18 18 18 18 19 20 21 21 23 22 22 19 14 12 9 6 6 7 8
43 41 39 44 41 40 39 37 38 38 36 38 35 32 30 28 28 28 31 30 30 30 31 27 25 26 28 29 27 23 22 21 20 19 24 25 25 27 25 26 24 24 24 25 23 24 22 21 24 20 21 21 20 20 20 19 18 18 17 18 17 16 15 17 17 17 18 17 17 17 19 19 20 20 21 21 21 21 21 22 21 18 13 10 8 7 7 8
47 48 45 42 38 40 40 38 37 37 35 37 36 36 35 32 31 30 30 32 29 29 30 29 29 28 29 29 28 27 26 25 25 24 27 28 24 29 26 28 27 23 22 23 20 20 23 23 23 23 21 22 22 21 21 21 21 20 19 19 18 18 17 17 18 17 17 18 18 18 19 20 19 21 20 21 20 20 21 21 21 21 17 13 10 9 8 8
51 47 48 44 38 40 39 39 38 36 32 36 36 36 36 35 35 34 32 33 31 30 31 31 31 30 29 28 28 28 28 28 27 27 25 29 29 29 28 28 28 26 24 25 23 23 26 23 22 22 20 21 24 22 21 21 21 21 21 21 21 20 20 20 21 21 19 18 19 19 19 19 20 21 21 21 21 22 22 23 23 23 21 14 13 11 9 9